Blythe, CA

10:12 AM PDT on June 26, 2017 (GMT -0700)
Blythe

Weather History for KBLH - February, 2013

Change the Weather History Date:

Friday, February 22, 2013

  Actual Average Record
Temperature  
Mean Temperature 50 °F -  
Max Temperature 64 °F 69 °F 84 °F (1982)
Min Temperature 37 °F 46 °F 37 °F (1974)
Degree Days  
Heating Degree Days 14    
Moisture  
Dew Point 25 °F    
Average Humidity 40    
Maximum Humidity 73    
Minimum Humidity 17    
Precipitation  
Precipitation 0.00 in - - ()
Sea Level Pressure  
Sea Level Pressure 30.13 in    
Wind  
Wind Speed 4 mph (NNW)    
Max Wind Speed 9 mph    
Max Gust Speed -    
Visibility 10 miles    
Events      
Averages and records for this station are not official NWS values.
T = Trace of Precipitation, MM = Missing Value Source: NWS Daily Summary

Daily Weather History Graph

Daily Weather History Graph

Search for Another Location

Airport or City:

Trip Planner

Search our weather history database for the weather conditions in past years. The results will help you decide how hot, cold, wet, or windy it might be!

Date:

Astronomy

Feb. 22, 2013 Rise Set
Actual Time 6:15 AM PST 5:29 PM PST
Civil Twilight 5:50 AM PST 5:55 PM PST
Nautical Twilight 5:21 AM PST 6:24 PM PST
Astronomical Twilight 4:52 AM PST 6:52 PM PST
Moon 2:50 PM PST (2/22) 3:57 AM PST (2/22)
Length of Visible Light 12h 05m
Length of Day
11h 14m
Waxing Gibbous, 91% of the Moon is Illuminated
Feb 22
Waxing Gibbous
Feb 25
Full
Mar 4
Last Quarter
Mar 11
New
Mar 19
First Quarter

Hourly Weather History & Observations

Time (PST) Temp. Windchill Dew Point Humidity Pressure Visibility Wind Dir Wind Speed Gust Speed Precip Events Conditions
12:52 AM 44.1 °F 40.1 °F 28.9 °F 55% 30.07 in 10.0 mi SW 6.9 mph - N/A   Clear
1:52 AM 44.1 °F 41.5 °F 26.1 °F 49% 30.06 in 10.0 mi WSW 4.6 mph - N/A   Clear
2:52 AM 37.9 °F - 28.0 °F 68% 30.08 in 10.0 mi Calm Calm - N/A   Clear
4:52 AM 37.0 °F 33.3 °F 28.9 °F 73% 30.10 in 10.0 mi NNW 4.6 mph - N/A   Clear
5:52 AM 37.0 °F 33.3 °F 28.9 °F 73% 30.12 in 10.0 mi North 4.6 mph - N/A   Clear
6:52 AM 37.9 °F 35.5 °F 30.0 °F 73% 30.15 in 10.0 mi North 3.5 mph - N/A   Clear
7:52 AM 46.0 °F - 30.9 °F 56% 30.17 in 10.0 mi Calm Calm - N/A   Clear
8:52 AM 48.0 °F - 28.0 °F 46% 30.19 in 10.0 mi SW 4.6 mph - N/A   Clear
9:52 AM 53.1 °F - 28.9 °F 40% 30.19 in 10.0 mi Calm Calm - N/A   Clear
10:52 AM 57.0 °F - 28.0 °F 33% 30.19 in 10.0 mi Calm Calm - N/A   Clear
11:52 AM 59.0 °F - 27.0 °F 29% 30.17 in 10.0 mi Calm Calm - N/A   Clear
12:52 PM 63.0 °F - 21.9 °F 21% 30.14 in 10.0 mi North 9.2 mph - N/A   Clear
1:52 PM 64.9 °F - 19.9 °F 18% 30.12 in 10.0 mi North 9.2 mph - N/A   Clear
2:52 PM 64.0 °F - 19.9 °F 18% 30.10 in 10.0 mi NNW 9.2 mph - N/A   Clear
3:52 PM 64.9 °F - 19.0 °F 17% 30.09 in 10.0 mi North 8.1 mph - N/A   Clear
4:52 PM 64.0 °F - 19.0 °F 18% 30.10 in 10.0 mi NNE 8.1 mph - N/A   Clear
5:52 PM 60.1 °F - 19.9 °F 21% 30.12 in 10.0 mi North 3.5 mph - N/A   Clear
6:52 PM 57.9 °F - 25.0 °F 28% 30.12 in 10.0 mi Calm Calm - N/A   Clear
7:52 PM 55.0 °F - 24.1 °F 30% 30.12 in 10.0 mi Calm Calm - N/A   Clear
8:52 PM 52.0 °F - 24.1 °F 34% 30.13 in 10.0 mi WSW 4.6 mph - N/A   Clear
9:52 PM 48.9 °F - 23.0 °F 36% 30.14 in 10.0 mi WNW 4.6 mph - N/A   Clear
10:52 PM 46.0 °F 44.8 °F 23.0 °F 40% 30.14 in 10.0 mi NE 3.5 mph - N/A   Clear
11:52 PM 45.0 °F 42.6 °F 23.0 °F 42% 30.13 in 10.0 mi North 4.6 mph - N/A   Clear